Weather History for Cedar City, UT

Change the Weather History Date:

Sunday, December 2, 2012

  Actual Average Record
Temperature  
Mean Temperature 43 °F 31 °F  
Max Temperature 54 °F 44 °F 64 °F (1977)
Min Temperature 31 °F 18 °F -4 °F (1967)
Degree Days  
Heating Degree Days 22 34  
Month to date heating degree days 44 68  
Since 1 July heating degree days 1180 1510  
Cooling Degree Days 0 0  
Month to date cooling degree days 0 0  
Year to date cooling degree days 715 588  
Moisture  
Dew Point 34 °F    
Average Humidity 68    
Maximum Humidity 85    
Minimum Humidity 50    
Precipitation  
Precipitation 0.00 in 0.02 in 0.48 in (1973)
Month to date precipitation 0.00 0.05  
Year to date precipitation 11.45 10.52  
Sea Level Pressure  
Sea Level Pressure 29.92 in    
Wind  
Wind Speed 13 mph (SSW)    
Max Wind Speed 31 mph    
Max Gust Speed 46 mph    
Visibility 10 miles    
Events      
T = Trace of Precipitation, MM = Missing Value Source: NWS Daily Summary

Daily Weather History Graph

Daily Weather History Graph

Search for Another Location

Airport:

Trip Planner

Search our weather history database for the weather conditions in past years. The results will help you decide how hot, cold, wet, or windy it might be!

Date:

Astronomy

Dec. 02, 2012 Rise Set
Actual Time 7:30 AM MST 5:13 PM MST
Civil Twilight 7:01 AM MST 5:42 PM MST
Nautical Twilight 6:28 AM MST 6:15 PM MST
Astronomical Twilight 5:57 AM MST 6:46 PM MST
Moon 9:03 PM MST (12/2) 10:23 AM MST (12/2)
Length of Visible Light 10h 41m
Length of Day
9h 43m
Waning Gibbous, 85% of the Moon is Illuminated
Dec 2
Waning Gibbous
Dec 6
Last Quarter
Dec 13
New
Dec 19
First Quarter
Dec 28
Full

Hourly Weather History & Observations

Time (MST) Temp. Windchill Dew Point Humidity Pressure Visibility Wind Dir Wind Speed Gust Speed Precip Events Conditions
12:53 AM 41.0 °F - 32.0 °F 70% 29.99 in 10.0 mi Calm Calm - N/A   Clear
1:53 AM 37.9 °F 32.1 °F 30.9 °F 76% 30.01 in 10.0 mi NE 8.1 mph - N/A   Clear
2:53 AM 37.9 °F 33.5 °F 34.0 °F 86% 30.03 in 10.0 mi SSE 5.8 mph - N/A   Mostly Cloudy
3:53 AM 41.0 °F 36.4 °F 33.1 °F 73% 29.97 in 10.0 mi SSW 6.9 mph - N/A   Clear
4:53 AM 39.9 °F 37.8 °F 33.1 °F 77% 29.96 in 10.0 mi NNW 3.5 mph - N/A   Clear
5:53 AM 35.1 °F 32.2 °F 28.9 °F 78% 30.00 in 10.0 mi Variable 3.5 mph - N/A   Clear
6:53 AM 33.1 °F 26.9 °F 28.0 °F 82% 30.01 in 10.0 mi East 6.9 mph - N/A   Scattered Clouds
7:53 AM 37.0 °F 31.6 °F 30.9 °F 79% 29.97 in 10.0 mi NNE 6.9 mph - N/A   Clear
8:53 AM 39.9 °F 33.4 °F 30.9 °F 70% 29.98 in 10.0 mi East 10.4 mph - N/A   Clear
9:53 AM 51.1 °F - 37.0 °F 59% 29.95 in 10.0 mi SSW 18.4 mph 34.5 mph N/A   Scattered Clouds
10:53 AM 52.0 °F - 37.0 °F 57% 29.93 in 10.0 mi SSW 20.7 mph 34.5 mph N/A   Overcast
11:53 AM 54.0 °F - 37.0 °F 53% 29.86 in 10.0 mi SSW 25.3 mph 41.4 mph N/A   Scattered Clouds
12:53 PM 52.0 °F - 37.0 °F 57% 29.88 in 10.0 mi South 20.7 mph 31.1 mph N/A   Mostly Cloudy
1:53 PM 53.1 °F - 37.0 °F 55% 29.83 in 10.0 mi SSW 23.0 mph 33.4 mph N/A   Mostly Cloudy
2:53 PM 53.1 °F - 37.9 °F 57% 29.83 in 10.0 mi SSW 20.7 mph 32.2 mph N/A   Partly Cloudy
3:53 PM 52.0 °F - 37.0 °F 57% 29.83 in 10.0 mi SW 19.6 mph 38.0 mph N/A   Partly Cloudy
4:53 PM 51.1 °F - 37.0 °F 59% 29.88 in 10.0 mi SSW 20.7 mph 28.8 mph N/A   Partly Cloudy
5:53 PM 51.1 °F - 36.0 °F 56% 29.90 in 10.0 mi South 6.9 mph - N/A   Mostly Cloudy
6:53 PM 51.1 °F - 35.1 °F 54% 29.91 in 10.0 mi SSW 19.6 mph 33.4 mph N/A   Scattered Clouds
7:53 PM 51.1 °F - 34.0 °F 52% 29.91 in 10.0 mi SSW 16.1 mph 25.3 mph N/A   Partly Cloudy
8:53 PM 51.1 °F - 35.1 °F 54% 29.88 in 10.0 mi SSW 20.7 mph 28.8 mph N/A   Partly Cloudy
9:53 PM 50.0 °F - 35.1 °F 57% 29.86 in 10.0 mi South 11.5 mph 20.7 mph N/A   Clear
10:53 PM 48.9 °F - 35.1 °F 59% 29.89 in 10.0 mi SSW 10.4 mph 19.6 mph N/A   Clear
11:53 PM 46.9 °F - 35.1 °F 63% 29.91 in 10.0 mi SW 6.9 mph - N/A   Partly Cloudy